Regional Weather Roundup
Issued by NWS

Home | Current Version | Previous Version | Text Only | Print | Product List | Glossary On
Versions: 1 2 3 4 5 6 7 8 9 10 11 12 13 14 15 16 17 18 19 20 21 22 23 24 25 26 27 28 29 30 31 32 33 34 35 36 37 38 39 40 41 42 43 44 45 46 47 48 49 50
000
ASUS46 KSEW 292310
RWRWA

WASHINGTON REGIONAL WEATHER ROUNDUP
NATIONAL WEATHER SERVICE SEATTLE WA
400 PM PDT TUE JUL 29 2014

NOTE:"FAIR" INDICATES FEW OR NO CLOUDS BELOW 12,000 FEET WITH NO
SIGNIFICANT WEATHER AND/OR OBSTRUCTIONS TO VISIBILITY.

WAZ505-507>509-300000-
SEATTLE, TACOMA, EVERETT, AND VICINITY

CITY           SKY/WX    TMP DP  RH WIND       PRES   REMARKS
EVERETT        SUNNY     74  54  49 N7        30.12F
BOEING FIELD   SUNNY     83  52  34 NW9       30.08F
RENTON         SUNNY     83  55  38 NW12      30.07F
SEATAC AIRPORT SUNNY     84  49  29 N13       30.11F
JBLM-MCCHORD   SUNNY     87  49  26 NE13      30.09F
PUYALLUP       FAIR      86  54  32 N3        30.10F
JBLM-FT LEWIS  SUNNY     87  51  29 N10       30.08F
TACOMA NARROWS SUNNY     83  52  34 NE9       30.09F
$$

WAZ001-503-506-510-514-515-300000-
NORTH INTERIOR

CITY           SKY/WX    TMP DP  RH WIND       PRES   REMARKS
BELLINGHAM     SUNNY     78  57  48 S6        30.09F
FRIDAY HARBOR  SUNNY     77  54  44 S9        30.10F
EASTSOUND      SUNNY     75  57  53 SW3       30.07F
PORT ANGELES   SUNNY     71  56  58 NW12      30.13F
NAS WHIDBEY    MOSUNNY   63  54  72 SW8       30.12F
BURLINGTON     SUNNY     81  59  47 SW7       30.10F
$$

WAZ020-022-039-040-504-511-512-300000-
SOUTHWEST INTERIOR

CITY           SKY/WX    TMP DP  RH WIND       PRES   REMARKS
SHELTON        SUNNY     88  53  30 SW9       30.06F
OLYMPIA        SUNNY     88  52  29 N9        30.08F
CHEHALIS       FAIR      90  61  37 VRB6G13   30.06F
KELSO          SUNNY     84  63  48 NW5       30.07F
VANCOUVER      SUNNY     88  57  34 NW12G20   30.02F
SCAPPOOSE, OR  SUNNY     90  53  28 N14       30.02F
PORTLAND, OR   MOSUNNY   89  60  37 NW7       30.02F
$$

WAZ021-516-517-300000-
WASHINGTON COAST

CITY           SKY/WX    TMP DP  RH WIND       PRES   REMARKS
FORKS          SUNNY     72  59  63 NW12G20   30.17R
HOQUIAM        SUNNY     69  59  70 SW14      30.13F
ASTORIA, OR    SUNNY     66  58  75 NW20      30.14S
$$

WAZ019-023-024-040-518-519-300000-
CASCADE MOUNTAINS AND COLUMBIA GORGE

CITY           SKY/WX    TMP DP  RH WIND       PRES   REMARKS
STAMPEDE PASS  NOT AVBL
TROUTDALE, OR  SUNNY     88  59  37 W10       30.01F
THE DALLES, OR MOSUNNY   95  55  26 NW18G26   29.90F HX  93
$$

WAZ026-027-041>044-520-521-300000-
EAST SLOPES

CITY           SKY/WX    TMP DP  RH WIND       PRES   REMARKS
OMAK           MOSUNNY  105  29   7 SW13      29.93F HX  98
WENATCHEE      SUNNY    102  36  10 SE5       29.93F HX  96
ELLENSBURG     SUNNY    102  47  15 W7        29.99F HX  98
YAKIMA         SUNNY    103  41  12 E3        29.93F HX  98
$$

WAZ028-034-035-300000-
COLUMBIA BASIN

CITY           SKY/WX    TMP DP  RH WIND       PRES   REMARKS
EPHRATA        SUNNY    103  38  10 S13G20    29.94F HX  97
MOSES LAKE     SUNNY    103  38  10 S8        29.95F HX  97
PASCO          SUNNY    104  50  16 N5        29.89F HX 101
HERMISTON, OR  SUNNY    104  48  15 VRB6      29.90F HX 100
$$

WAZ036>038-300000-
NORTHEAST WASHINGTON

CITY           SKY/WX    TMP DP  RH WIND       PRES   REMARKS
SPOKANE GEIGER MOSUNNY   99  39  12 E10       30.02F HX  94
SPOKANE FELTS  MOSUNNY   99  37  11 VRB3      30.00F HX  94
FAIRCHILD AFB  MOSUNNY   98  40  13 VRB7      30.03F HX  93
COEURDALENE,ID SUNNY     99  37  12 S5        30.00F HX  93
DEER PARK        N/A     98  35  11 S6        30.02F HX  93
$$

WAZ029>033-300000-
SOUTHEAST WASHINGTON

CITY           SKY/WX    TMP DP  RH WIND       PRES   REMARKS
PULLMAN        SUNNY     97  37  12 N8        30.05F HX  92
LEWISTON, ID   LGT RAIN 105  35   9 NW8       29.93F HX  99
WALLA WALLA    SUNNY    104  39  10 W7        29.94F HX  98
PENDLETON, OR  SUNNY    103  38  10 NW7G21    29.95F HX  97
$$



USA.gov is the U.S. government's official web portal to all federal, state and local government web resources and services.